Weather History for KCBE - May, 2014

Change the Weather History Date:

Thursday, May 8, 2014

  Actual Average (KMRB) Record (KMRB)
Temperature  
Mean Temperature 70 °F 59 °F  
Max Temperature 89 °F 71 °F 95 °F (1930)
Min Temperature 51 °F 47 °F 31 °F (1974)
Degree Days  
Heating Degree Days 0 7  
Month to date heating degree days 62  
Since 1 July heating degree days 5119  
Cooling Degree Days 5 1  
Month to date cooling degree days 8  
Year to date cooling degree days 17  
Growing Degree Days 20 (Base 50)    
Moisture  
Dew Point 52 °F    
Average Humidity 64    
Maximum Humidity 100    
Minimum Humidity 25    
Precipitation  
Precipitation 0.00 in 0.14 in 2.52 in (1960)
Month to date precipitation 1.05  
Year to date precipitation 12.69  
Sea Level Pressure  
Sea Level Pressure 30.12 in    
Wind  
Wind Speed 2 mph (WSW)    
Max Wind Speed 10 mph    
Max Gust Speed 18 mph    
Visibility 9 miles    
Events      
T = Trace of Precipitation, MM = Missing Value Source: NWS Daily Summary

Daily Weather History Graph

Daily Weather History Graph

Search for Another Location

Airport or City:

Trip Planner

Search our weather history database for the weather conditions in past years. The results will help you decide how hot, cold, wet, or windy it might be!

Date:

Astronomy

May. 08, 2014 Rise Set
Actual Time 6:07 AM EDT 8:15 PM EDT
Civil Twilight 5:38 AM EDT 8:45 PM EDT
Nautical Twilight 5:01 AM EDT 9:22 PM EDT
Astronomical Twilight 4:21 AM EDT 10:02 PM EDT
Moon 2:16 PM EDT (5/8) 2:36 AM EDT (5/8)
Length of Visible Light 15h 07m
Length of Day
14h 08m
Waxing Gibbous, 64% of the Moon is Illuminated
May 8
Waxing Gibbous
May 14
Full
May 21
Last Quarter
May 28
New
Jun 5
First Quarter

Hourly Weather History & Observations

Time (EDT) Temp. Heat Index Dew Point Humidity Pressure Visibility Wind Dir Wind Speed Gust Speed Precip Events Conditions
12:14 AM 53.6 °F - 51.8 °F 94% 30.17 in 10.0 mi Calm Calm - N/A   Overcast
12:34 AM 53.6 °F - 50.0 °F 88% 30.16 in 10.0 mi Calm Calm - N/A   Overcast
12:54 AM 51.8 °F - 50.0 °F 94% 30.16 in 7.0 mi Calm Calm - N/A   Overcast
1:14 AM 51.8 °F - 50.0 °F 94% 30.15 in 7.0 mi Calm Calm - N/A   Mostly Cloudy
1:34 AM 51.8 °F - 50.0 °F 94% 30.15 in 5.0 mi Calm Calm - N/A   Overcast
1:54 AM 51.8 °F - 51.8 °F 100% 30.15 in 7.0 mi Calm Calm - N/A   Mostly Cloudy
2:14 AM 51.8 °F - 50.0 °F 94% 30.15 in 5.0 mi Calm Calm - N/A   Overcast
2:34 AM 51.8 °F - 50.0 °F 94% 30.15 in 5.0 mi Calm Calm - N/A   Overcast
2:54 AM 51.8 °F - 50.0 °F 94% 30.15 in 4.0 mi Calm Calm - N/A   Overcast
3:14 AM 51.8 °F - 50.0 °F 94% 30.15 in 7.0 mi Calm Calm - N/A   Overcast
3:34 AM 51.8 °F - 51.8 °F 100% 30.15 in 7.0 mi Calm Calm - N/A   Overcast
3:54 AM 51.8 °F - 51.8 °F 100% 30.15 in 10.0 mi Calm Calm - N/A   Overcast
4:14 AM 51.8 °F - 51.8 °F 100% 30.15 in 10.0 mi Calm Calm - N/A   Overcast
4:34 AM 51.8 °F - 51.8 °F 100% 30.15 in 7.0 mi Calm Calm - N/A   Mostly Cloudy
4:54 AM 51.8 °F - 51.8 °F 100% 30.15 in 10.0 mi Calm Calm - N/A   Mostly Cloudy
5:14 AM 51.8 °F - 51.8 °F 100% 30.16 in 7.0 mi Calm Calm - N/A   Mostly Cloudy
5:34 AM 51.8 °F - 51.8 °F 100% 30.16 in 7.0 mi Calm Calm - N/A   Overcast
5:54 AM 51.8 °F - 51.8 °F 100% 30.16 in 7.0 mi Calm Calm - N/A   Overcast
6:14 AM 51.8 °F - 51.8 °F 100% 30.17 in 7.0 mi Calm Calm - N/A   Overcast
6:34 AM 51.8 °F - 51.8 °F 100% 30.18 in 7.0 mi Calm Calm - N/A   Overcast
6:55 AM 51.8 °F - 51.8 °F 100% 30.18 in 7.0 mi Calm Calm - N/A   Overcast
7:15 AM 51.8 °F - 51.8 °F 100% 30.18 in 7.0 mi Calm Calm - N/A   Overcast
7:35 AM 53.6 °F - 51.8 °F 94% 30.18 in 7.0 mi Calm Calm - N/A   Overcast
7:55 AM 53.6 °F - 51.8 °F 94% 30.18 in 7.0 mi Calm Calm - N/A   Overcast
8:15 AM 53.6 °F - 51.8 °F 94% 30.18 in 7.0 mi Calm Calm - N/A   Mostly Cloudy
8:35 AM 55.4 °F - 51.8 °F 88% 30.18 in 7.0 mi Calm Calm - N/A   Mostly Cloudy
8:55 AM 57.2 °F - 51.8 °F 82% 30.18 in 7.0 mi Calm Calm - N/A   Scattered Clouds
9:15 AM 57.2 °F - 51.8 °F 82% 30.19 in 7.0 mi Calm Calm - N/A   Scattered Clouds
9:35 AM 59.0 °F - 53.6 °F 82% 30.19 in 7.0 mi Calm Calm - N/A   Clear
9:55 AM 60.8 °F - 53.6 °F 77% 30.18 in 10.0 mi Calm Calm - N/A   Clear
10:15 AM 60.8 °F - 53.6 °F 77% 30.18 in 10.0 mi Calm Calm - N/A   Clear
10:35 AM 62.6 °F - 53.6 °F 72% 30.17 in 10.0 mi Calm Calm - N/A   Clear
10:55 AM 64.4 °F - 53.6 °F 68% 30.17 in 10.0 mi Calm Calm - N/A   Clear
11:15 AM 66.2 °F - 55.4 °F 68% 30.16 in 10.0 mi Calm Calm - N/A   Clear
11:35 AM 68.0 °F - 55.4 °F 64% 30.15 in 10.0 mi SE 5.8 mph - N/A   Clear
11:55 AM 69.8 °F - 55.4 °F 60% 30.15 in 10.0 mi SE 4.6 mph - N/A   Clear
12:15 PM 69.8 °F - 55.4 °F 60% 30.14 in 10.0 mi South 4.6 mph - N/A   Clear
12:35 PM 73.4 °F - 55.4 °F 53% 30.12 in 10.0 mi South 4.6 mph - N/A   Clear
12:55 PM 75.2 °F - 57.2 °F 53% 30.12 in 10.0 mi Calm Calm - N/A   Clear
1:15 PM 78.8 °F - 57.2 °F 47% 30.10 in 10.0 mi Calm Calm - N/A   Clear
1:35 PM 80.6 °F 80.8 °F 57.2 °F 45% 30.09 in 10.0 mi South 4.6 mph - N/A   Clear
1:55 PM 82.4 °F 81.7 °F 55.4 °F 39% 30.08 in 10.0 mi Calm Calm - N/A   Clear
2:15 PM 84.2 °F 83.0 °F 55.4 °F 37% 30.07 in 10.0 mi SE 5.8 mph - N/A   Clear
2:35 PM 86.0 °F - 51.8 °F 31% 30.07 in 10.0 mi Calm Calm - N/A   Clear
2:55 PM 87.8 °F - 51.8 °F 29% 30.06 in 10.0 mi Calm Calm - N/A   Clear
3:15 PM 87.8 °F - 51.8 °F 29% 30.05 in 10.0 mi SSW 10.4 mph - N/A   Clear
3:35 PM 87.8 °F - 51.8 °F 29% 30.05 in 10.0 mi South 10.4 mph - N/A   Clear
3:56 PM 87.8 °F - 50.0 °F 27% 30.04 in 10.0 mi West 8.1 mph 18.4 mph N/A   Clear
4:16 PM 89.6 °F - 50.0 °F 26% 30.04 in 10.0 mi WSW 3.5 mph - N/A   Clear
4:36 PM 89.6 °F - 50.0 °F 26% 30.03 in 10.0 mi West 5.8 mph - N/A   Clear
4:56 PM 89.6 °F - 50.0 °F 26% 30.03 in 10.0 mi WNW 4.6 mph - N/A   Clear
5:16 PM 87.8 °F - 50.0 °F 27% 30.03 in 10.0 mi SW 9.2 mph - N/A   Clear
5:36 PM 89.6 °F - 50.0 °F 26% 30.03 in 10.0 mi SSW 5.8 mph - N/A   Clear
5:56 PM 87.8 °F - 48.2 °F 25% 30.03 in 10.0 mi SW 8.1 mph - N/A   Clear
6:16 PM 87.8 °F - 48.2 °F 25% 30.03 in 10.0 mi SSW 8.1 mph - N/A   Clear
6:36 PM 87.8 °F - 50.0 °F 27% 30.03 in 10.0 mi WSW 10.4 mph - N/A   Clear
6:56 PM 86.0 °F - 46.4 °F 25% 30.03 in 10.0 mi SW 9.2 mph - N/A   Clear
7:16 PM 86.0 °F - 46.4 °F 25% 30.04 in 10.0 mi West 8.1 mph - N/A   Clear
7:36 PM 86.0 °F - 46.4 °F 25% 30.04 in 10.0 mi West 8.1 mph - N/A   Clear
7:56 PM 84.2 °F - 46.4 °F 27% 30.05 in 10.0 mi WSW 8.1 mph - N/A   Clear
8:16 PM 82.4 °F - 48.2 °F 30% 30.06 in 10.0 mi WSW 5.8 mph - N/A   Clear
8:36 PM 82.4 °F - 48.2 °F 30% 30.06 in 10.0 mi WSW 6.9 mph - N/A   Clear
8:56 PM 82.4 °F - 48.2 °F 30% 30.07 in 10.0 mi West 5.8 mph - N/A   Clear
9:16 PM 80.6 °F - 48.2 °F 32% 30.07 in 10.0 mi West 4.6 mph - N/A   Clear
9:36 PM 77.0 °F - 50.0 °F 39% 30.07 in 10.0 mi NW 4.6 mph - N/A   Clear
9:56 PM 73.4 °F - 51.8 °F 47% 30.07 in 10.0 mi North 3.5 mph - N/A   Clear
10:16 PM 71.6 °F - 51.8 °F 50% 30.08 in 10.0 mi NW 3.5 mph - N/A   Clear
10:36 PM 71.6 °F - 53.6 °F 53% 30.09 in 10.0 mi NW 3.5 mph - N/A   Clear
10:56 PM 71.6 °F - 53.6 °F 53% 30.10 in 10.0 mi NW 4.6 mph - N/A   Clear
11:16 PM 68.0 °F - 53.6 °F 60% 30.10 in 10.0 mi East 4.6 mph - N/A   Clear
11:36 PM 68.0 °F - 53.6 °F 60% 30.11 in 10.0 mi Calm Calm - N/A   Clear
11:56 PM 68.0 °F - 53.6 °F 60% 30.11 in 10.0 mi Calm Calm - N/A   Clear